User: anonymous   Login
Location: Bagnara
(41.0500°N, 14.7833°E)
Time: 07:25:51
(UTC+00:00)
Language:

SL-16 DEB - Orbit

View from above orbital plane
View from above orbital plane
View from above satellite
View from above satellite

Ground track
Ground track

The orbit data is extracted from the following two-line orbital elements,

1 39910U 93016CL  22025.26317153  .00032497  00000-0  32779-2 0  9995
2 39910  70.9872 357.0464 0001819 247.7982 112.2987 14.90959621409205
Epoch (UTC): 25 January 2022 06:18:58
Eccentricity: 0.0001819
inclination: 70.9872°
perigee height: 593 km
apogee height: 596 km
right ascension of ascending node: 357.0464°
argument of perigee: 247.7982°
revolutions per day: 14.90959621
mean anomaly at epoch: 112.2987°
orbit number at epoch: 40920

The dashed part of the orbit path shows where the satellite is in the earth's shadow,  

DLR